Location: ???????
(55.4362°N, 38.1183°E)
Time: 03:33:49
(UTC+00:00)

Meteor 1-27 - Pass Details

Date: 17 June 2021
Orbit: 838 x 892 km, 81.2° (Epoch: 26 July)

Event Time Altitude Azimuth Distance (km) Brightness Sun altitude
Rises 21:55:09 0° 344° (NNW) 3,413 8.8 -11.0°
Reaches altitude 10° 21:57:35 10° 343° (NNW) 2,471 7.8 -10.9°
Maximum altitude 22:03:10 77° 259° (W) 869 4.2 -10.8°
Enters shadow 22:08:08 13° 175° (S) 2,238 5.8 -10.7°
